Flag for Japan Weather past 2 weeks in Sapporo, Japan

Now
76 °F

Mild.


Feels Like: 78 °F
Forecast: 64 / 76 °F
Wind: 3 mph from Northeast

Location: Sapporo

Current Time: Sep 1, 2015 at 12:01:00 PM

Latest Report: Sep 1, 2015 at 11:00 AM


Visibility: N/A

Pressure: 29.97 "Hg

Humidity: 58%

Dew point: 61 °F

Location of SapporoLocation

Historic Weather in Sapporo — Graph

°F

Sapporo temperature yesterday

Maximum temperature yesterday: 76 °F (at 11:00 AM)
Minimum temperature yesterday: 67 °F (at 4:00 AM)
Average temperature yesterday: 71 °F

Past Weeks' High & Low Weather Summary

 TemperatureHumidityPressure
High81 °F (Aug 17, 2:00 PM)94% (Aug 18, 9:00 PM)30.01 "Hg (Aug 18, 9:00 PM)
Low59 °F (Aug 25, 5:00 AM)32% (Aug 25, 3:00 PM)29.69 "Hg (Aug 22, 2:00 PM)
Average69 °F71%29.89 "Hg
* Reported Aug 17 10:00 AM — Sep 1 10:00 AM, Sapporo, Weather by CustomWeather, © 2015

Note: Actual official high and low records may vary slightly from our data, if they occured in-between our weather recording intervals... More about our weather records

Advertising

Sapporo weather history for previous 24 hours

 ConditionsComfort  
Time TempWeatherWind HumidityBarometerVisibility
10:00 AM
Tue, Sep 1
74 °FMild.2 mph63%29.99 "HgN/A
9:00 AM73 °FPassing clouds.3 mph66%29.99 "Hg12 mi
8:00 AM71 °FMild.3 mph71%29.99 "HgN/A
7:00 AM68 °FMild.1 mph74%30.00 "HgN/A
5:00 AM65 °FMild.1 mph82%29.98 "HgN/A
4:00 AM66 °FMild.1 mph80%29.98 "HgN/A
3:00 AM66 °FOvercast.No wind84%29.98 "Hg12 mi
2:00 AM67 °FMild.1 mph83%29.99 "HgN/A
1:00 AM69 °FMild.No wind85%29.98 "HgN/A
12:00 AM70 °FMild.2 mph83%29.99 "HgN/A
11:00 PM
Mon, Aug 31
70 °FMild.2 mph83%29.99 "HgN/A
10:00 PM71 °FMild.5 mph82%30.00 "HgN/A
9:00 PM71 °FOvercast.5 mph79%29.99 "Hg12 mi
8:00 PM71 °FMild.6 mph80%29.98 "HgN/A
7:00 PM72 °FMild.6 mph77%29.97 "HgN/A
6:00 PM72 °FOvercast.7 mph75%29.96 "Hg12 mi
5:00 PM74 °FMild.3 mph72%29.95 "HgN/A
4:00 PM73 °FMild.5 mph71%29.95 "HgN/A
3:00 PM74 °FOvercast.8 mph67%29.96 "Hg12 mi
2:00 PM75 °FMild.6 mph67%29.96 "HgN/A
1:00 PM75 °FMild.6 mph65%29.97 "HgN/A
12:00 PM74 °FOvercast.6 mph66%29.98 "Hg12 mi
Weather by CustomWeather, © 2015

See weather overviewHow to use our weather pages